VA7NIC-10 Weather Reports


time (UTC)temp
C
wind
direction
speed
KPH
gust
KPH
rain 1hr
cm
rain 24hr
cm
rain mn
cm
humidity
%
barometer
mb
20260503195201 25 36 0.0 0.0 0.00 0.00 0.00 37 1012.6
20260503193701 25 37 0.0 0.0 0.00 0.00 0.00 39 1012.7
20260503192201 25 22 0.0 0.0 0.00 0.00 0.00 38 1012.8
20260503190702 23 20 0.0 0.0 0.00 0.00 0.00 42 1013.0
20260503185202 23 359 0.0 0.0 0.00 0.00 0.00 46 1013.1
20260503183702 22 359 0.0 0.0 0.00 0.00 0.00 47 1013.3
20260503182202 22 359 0.0 0.0 0.00 0.00 0.00 47 1013.4
20260503180701 21 38 0.0 0.0 0.00 0.00 0.00 49 1013.6
20260503175201 20 22 0.0 0.0 0.00 0.00 0.00 52 1013.7
20260503173701 19 359 0.0 0.0 0.00 0.00 0.00 52 1013.8
20260503172202 18 359 0.0 0.0 0.00 0.00 0.00 52 1014.0
20260503170701 17 337 0.0 0.0 0.00 0.00 0.00 56 1014.1
20260503150702 12 359 0.0 0.0 0.00 0.00 0.00 82 1015.0
20260503130701 11 359 0.0 0.0 0.00 0.00 0.00 78 1014.7
20260503110702 12 359 0.0 0.0 0.00 0.00 0.00 73 1014.7
20260503080702 15 359 0.0 0.0 0.00 0.00 0.00 62 1014.7
20260503072202 16 359 0.0 0.0 0.00 0.00 0.00 57 1014.7
20260503070702 16 359 0.0 0.0 0.00 0.00 0.00 56 1014.5
20260503053701 18 359 0.0 0.0 0.00 0.00 0.00 49 1014.2
20260503052201 20 359 0.0 0.0 0.00 0.00 0.00 46 1014.1
20260503050701 21 359 0.0 0.0 0.00 0.00 0.00 42 1014.0
20260503045201 21 359 0.0 0.0 0.00 0.00 0.00 39 1013.8
20260503043701 21 359 0.0 0.0 0.00 0.00 0.00 39 1013.8
20260503042201 21 359 0.0 0.0 0.00 0.00 0.00 40 1013.7
20260503040702 21 359 0.0 0.0 0.00 0.00 0.00 39 1013.5
20260503035202 22 359 0.0 0.0 0.00 0.00 0.00 40 1013.4
20260503033702 23 359 0.0 0.0 0.00 0.00 0.00 39 1013.3
20260503032202 23 359 0.0 0.0 0.00 0.00 0.00 36 1013.2
20260503030701 24 359 0.0 0.0 0.00 0.00 0.00 33 1013.1
20260503025202 25 359 0.0 0.0 0.00 0.00 0.00 31 1013.0
20260503023701 25 359 0.0 0.0 0.00 0.00 0.00 31 1013.0
20260503022201 25 359 0.0 0.0 0.00 0.00 0.00 30 1013.0
20260503020701 25 359 0.0 0.0 0.00 0.00 0.00 30 1013.1
20260503015201 25 359 0.0 0.0 0.00 0.00 0.00 29 1013.1
20260503013701 25 359 1.6 0.0 0.00 0.00 0.00 30 1013.1
20260503012201 25 359 0.0 8.0 0.00 0.00 0.00 29 1013.2
20260503010701 25 359 0.0 4.8 0.00 0.00 0.00 29 1013.3
20260503005201 25 359 0.0 8.0 0.00 0.00 0.00 29 1013.4
20260503003701 25 359 1.6 8.0 0.00 0.00 0.00 29 1013.4
20260503002202 25 359 0.0 0.0 0.00 0.00 0.00 30 1013.5
20260503000702 25 359 0.0 9.7 0.00 0.00 0.00 30 1013.6
20260502235202 25 359 0.0 0.0 0.00 0.00 0.00 31 1014.0
20260502233702 25 335 0.0 9.7 0.00 0.00 0.00 31 1013.9
20260502232202 25 350 0.0 9.7 0.00 0.00 0.00 31 1014.2
20260502230701 25 359 0.0 0.0 0.00 0.00 0.00 32 1014.5
20260502225201 25 359 3.2 4.8 0.00 0.00 0.00 31 1014.6
20260502223701 25 0 0.0 0.0 0.00 0.00 0.00 30 1014.8
20260502222201 25 359 8.0 16.1 0.00 0.00 0.00 30 1014.9
20260502220701 25 359 3.2 0.0 0.00 0.00 0.00 29 1014.9
20260502215201 25 359 0.0 0.0 0.00 0.00 0.00 29 1015.1
20260502213701 25 359 0.0 0.0 0.00 0.00 0.00 32 1015.1
20260502212201 25 359 0.0 0.0 0.00 0.00 0.00 33 1015.2
20260502210701 25 359 0.0 0.0 0.00 0.00 0.00 34 1015.3
20260502205201 25 359 0.0 0.0 0.00 0.00 0.00 35 1015.4
20260502203702 25 359 0.0 0.0 0.00 0.00 0.00 39 1015.7
20260502202202 25 316 0.0 0.0 0.00 0.00 0.00 40 1015.8
20260502200702 24 359 0.0 0.0 0.00 0.00 0.00 44 1016.1